TimeEST,TemperatureF,Dew PointF,Humidity,Sea Level PressureIn,VisibilityMPH,Wind Direction,Wind SpeedMPH,Gust SpeedMPH,PrecipitationIn,Events,Conditions,WindDirDegrees,DateUTC
12:53 AM,51.1,46.9,86,30.36,10.0,Calm,Calm,-,N/A,,Clear,0,2012-02-28 05:53:00
1:53 AM,48.9,45.0,86,30.36,10.0,Calm,Calm,-,N/A,,Clear,0,2012-02-28 06:53:00
2:53 AM,46.0,43.0,89,30.35,10.0,Calm,Calm,-,N/A,,Clear,0,2012-02-28 07:53:00
3:53 AM,46.9,44.1,90,30.35,10.0,Calm,Calm,-,N/A,,Clear,0,2012-02-28 08:53:00
4:53 AM,46.0,43.0,89,30.35,9.0,Calm,Calm,-,N/A,,Clear,0,2012-02-28 09:53:00
5:53 AM,44.1,42.1,93,30.36,0.8,Calm,Calm,-,N/A,,Mist,0,2012-02-28 10:53:00
6:02 AM,44.6,42.8,93,30.36,0.2,Calm,Calm,-,N/A,Fog,Fog,0,2012-02-28 11:02:00
6:25 AM,42.8,41.0,93,30.37,0.2,Calm,Calm,-,N/A,Fog,Fog,0,2012-02-28 11:25:00
6:45 AM,42.8,42.8,100,30.38,1.0,Calm,Calm,-,N/A,,Mist,0,2012-02-28 11:45:00
6:53 AM,42.1,41.0,96,30.38,4.0,Calm,Calm,-,N/A,,Mist,0,2012-02-28 11:53:00
7:53 AM,46.0,44.1,93,30.40,9.0,Calm,Calm,-,N/A,,Unknown,0,2012-02-28 12:53:00
8:53 AM,52.0,42.1,69,30.40,10.0,NE,6.9,-,N/A,,Clear,50,2012-02-28 13:53:00
9:53 AM,57.0,41.0,55,30.41,10.0,ENE,12.7,-,N/A,,Partly Cloudy,70,2012-02-28 14:53:00
10:53 AM,60.1,41.0,49,30.41,10.0,East,8.1,-,0.01,,Clear,80,2012-02-28 15:53:00
11:53 AM,62.1,41.0,46,30.40,10.0,East,3.5,-,N/A,,Clear,90,2012-02-28 16:53:00
12:53 PM,66.0,39.9,38,30.36,10.0,SE,9.2,-,N/A,,Clear,140,2012-02-28 17:53:00
1:53 PM,66.0,37.9,36,30.34,10.0,South,8.1,-,N/A,,Clear,170,2012-02-28 18:53:00
2:53 PM,66.9,39.9,37,30.32,10.0,Variable,4.6,-,N/A,,Clear,0,2012-02-28 19:53:00
3:53 PM,66.9,42.1,40,30.30,10.0,SSE,10.4,-,N/A,,Clear,160,2012-02-28 20:53:00
4:53 PM,66.0,43.0,43,30.30,10.0,South,10.4,-,N/A,,Mostly Cloudy,170,2012-02-28 21:53:00
5:53 PM,64.9,44.1,47,30.31,10.0,South,10.4,-,N/A,,Mostly Cloudy,180,2012-02-28 22:53:00
6:53 PM,63.0,44.1,50,30.31,10.0,South,6.9,-,N/A,,Overcast,180,2012-02-28 23:53:00
7:53 PM,60.1,48.0,64,30.30,10.0,Calm,Calm,-,0.00,,Mostly Cloudy,0,2012-02-29 00:53:00
8:53 PM,60.1,46.9,62,30.30,10.0,South,3.5,-,N/A,,Overcast,190,2012-02-29 01:53:00
9:53 PM,60.1,46.9,62,30.30,10.0,SSW,3.5,-,N/A,,Overcast,210,2012-02-29 02:53:00
10:53 PM,59.0,48.0,67,30.29,10.0,SW,4.6,-,N/A,,Overcast,230,2012-02-29 03:53:00
11:08 PM,59.0,48.2,67,30.29,10.0,West,4.6,-,N/A,,Overcast,260,2012-02-29 04:08:00
11:43 PM,59.0,48.2,67,30.28,10.0,WNW,3.5,-,N/A,,Overcast,290,2012-02-29 04:43:00
11:53 PM,57.9,48.0,70,30.27,10.0,West,3.5,-,N/A,,Overcast,260,2012-02-29 04:53:00